Voltar ao catálogo

EXPLORER 31

ISIS-X

AtivoCiênciaUNKNOWN
NORAD 1806·PAYLOAD·🇺🇸 United States

Lançado Nov 29, 1965 de Vandenberg Space Force Base

Loading…

Próximas Passagens (próximas 24 horas)

TLE

AtualizadoSource: Space-Track

Época: Sep 14, 2026, 00:39 UTC

1 01806U 65098B   26257.02739471  .00000950  00000-0  33236-3 0  9992
2 01806  79.7720 276.5432 1422549 320.5086  30.0226 12.08393595659423

Acompanhe EXPLORER 31 em tempo real com AllMySat

Download on the App Store